Flag for Austria Weather past 2 weeks in Waidhofen an der Thaya, Lower Austria, Austria

Now
75 °F

Mild.


Feels Like: 78 °F
Forecast: 62 / 84 °F
Wind: 3 mph from West

Location: Retz

Current Time: Jul 5, 2015 at 3:18:43 AM

Latest Report: Jul 5, 2015 at 2:00 AM


Visibility: N/A

Pressure: 30.10 "Hg (28.39 "Hg at 506m altitude)

Humidity: 48%

Dew point: 54 °F

Location of Waidhofen an der ThayaLocation

Historic Weather in Waidhofen an der Thaya — Graph

°F

Waidhofen an der Thaya temperature yesterday

Maximum temperature yesterday: 90 °F (at 2:00 PM)
Minimum temperature yesterday: 68 °F (at 6:00 AM)
Average temperature yesterday: 79 °F

Past Weeks' High & Low Weather Summary

 TemperatureHumidityPressure
High90 °F (Jul 4, 2:00 PM)99% (Jun 23, 3:00 AM)30.29 "Hg (Jun 23, 3:00 AM)
Low49 °F (Jun 21, 1:00 AM)28% (Jul 4, 5:00 PM)29.72 "Hg (Jun 23, 4:00 AM)
Average66 °F60%30.09 "Hg
* Reported Jun 20 2:00 AM — Jul 5 2:00 AM, Waidhofen an der Thaya, Weather by CustomWeather, © 2015

Note: Actual official high and low records may vary slightly from our data, if they occured in-between our weather recording intervals... More about our weather records

Advertising

Waidhofen an der Thaya weather history for previous 24 hours

 ConditionsComfort  
Time TempWeatherWind HumidityBarometerVisibility
2:00 AM
Sun, Jul 5
75 °FMild.3 mph48%30.10 "HgN/A
1:00 AM76 °FMild.5 mph46%30.10 "HgN/A
12:00 AM76 °FMild.5 mph46%30.11 "HgN/A
11:00 PM
Sat, Jul 4
77 °FWarm.3 mph44%30.11 "HgN/A
10:00 PM79 °FWarm.3 mph42%30.11 "HgN/A
9:00 PM82 °FPleasantly warm.2 mph39%30.10 "HgN/A
8:00 PM85 °FSunny.2 mph35%30.10 "Hg16 mi
7:00 PM87 °FPleasantly warm.2 mph30%30.10 "HgN/A
6:00 PM89 °FHot.1 mph30%30.10 "HgN/A
5:00 PM89 °FHot.1 mph28%30.11 "HgN/A
4:00 PM89 °FHot.3 mph31%30.12 "HgN/A
3:00 PM89 °FHot.2 mph31%30.13 "HgN/A
2:00 PM90 °FSunny.2 mph33%30.14 "Hg14 mi
1:00 PM86 °FPleasantly warm.2 mph37%30.16 "HgN/A
12:00 PM85 °FWarm.3 mph41%30.18 "HgN/A
11:00 AM81 °FWarm.3 mph48%30.20 "HgN/A
10:00 AM78 °FWarm.2 mph52%30.21 "HgN/A
9:00 AM76 °FMild.2 mph54%30.22 "HgN/A
8:00 AM72 °FPassing clouds.3 mph61%30.22 "Hg11 mi
7:00 AM68 °FPassing clouds.5 mph66%30.23 "Hg11 mi
6:00 AM68 °FMild.5 mph66%30.23 "HgN/A
5:00 AM70 °FMild.3 mph62%30.23 "HgN/A
4:00 AM70 °FMild.2 mph61%30.24 "HgN/A
3:00 AM71 °FMild.1 mph58%30.25 "HgN/A
Weather by CustomWeather, © 2015

See weather overviewHow to use our weather pages